Stations météo

Publicité
Grenoble/St.Geoirs, France (7486): Température de l'air & dewpoint: 15.10.2017 10:00:00 - 21.10.2017 10:00:00 (CEST)Grenoble/St.Geoirs, France (7486): Température de l'air 5cm: 15.10.2017 10:00:00 - 21.10.2017 10:00:00 (CEST)Grenoble/St.Geoirs, France (7486): Température de l'air -20cm & Température de l'air -100cm: 15.10.2017 10:00:00 - 21.10.2017 10:00:00 (CEST)Grenoble/St.Geoirs, France (7486): Vitesse du vent & gusts: 15.10.2017 10:00:00 - 21.10.2017 10:00:00 (CEST)Grenoble/St.Geoirs, France (7486): Direction du vent: 15.10.2017 10:00:00 - 21.10.2017 10:00:00 (CEST)Grenoble/St.Geoirs, France (7486): reduced air pressure: 15.10.2017 10:00:00 - 21.10.2017 10:00:00 (CEST)Grenoble/St.Geoirs, France (7486): visibility: 15.10.2017 10:00:00 - 21.10.2017 10:00:00 (CEST)Grenoble/St.Geoirs, France (7486): Ensoleillement: 15.10.2017 10:00:00 - 21.10.2017 10:00:00 (CEST)Grenoble/St.Geoirs, France (7486): Quantités de précipitations: 15.10.2017 10:00:00 - 21.10.2017 10:00:00 (CEST)
Date & Time tt [°C] td [°C] tt 5cm [°C] tt -20cm [°C] tt -100cm [°C] ff [km/h] ff [knt] fx [km/h] fx [knt] dd ppp [hPa] vv [km] sd [min] rr [mm]
21.10.2017 10:00:00 15,6 14,1 13,7 14,3 15,1 10 6 16 9 ENE 1020,1 4,0 60 0,0
21.10.2017 09:00:00 12,2 11,9 8,5 14,3 15,1 6 3 13 7 ENE 1020,6 0,7 35 0,0
21.10.2017 08:00:00 10,2 9,7 8,2 14,3 15,1 11 6 16 9 E 1020,6 1,0 0 0,0
21.10.2017 07:00:00 10,6 10,0 8,5 14,4 15,1 11 6 14 8 E 1020,5 2,7 0 0,0
21.10.2017 06:00:00 11,4 10,5 8,8 14,4 15,1 6 3 14 8 SE 1019,9 4,7 0 0,0
21.10.2017 05:00:00 12,0 10,9 9,8 14,4 15,1 6 4 13 7 E 1019,5 6 0 0,0
21.10.2017 04:00:00 13,9 11,9 11,3 14,4 15,1 4 2 10 6 N 1019,8 7 0 0,0
21.10.2017 03:00:00 15,3 13,1 12,5 14,4 15,1 4 2 14 7 W 1019,7 11 0 0,0
21.10.2017 02:00:00 14,9 12,4 12,1 14,4 15,1 9 5 12 7 W 1019,8 16 0 0,0
21.10.2017 01:00:00 15,6 12,3 13,5 14,5 15,1 7 4 20 11 WNW 1019,7 18 0 0,0
21.10.2017 00:00:00 16,3 12,3 14,9 14,5 15,1 9 5 17 9 WSW 1019,5 23 0 0,0
20.10.2017 23:00:00 16,9 12,0 14,8 14,4 15,1 10 5 16 9 WSW 1019,2 26 0 0,0
20.10.2017 22:00:00 16,6 11,7 13,6 14,4 15,1 6 3 12 6 WSW 1019,0 26 0 0,0
20.10.2017 21:00:00 15,9 10,9 12,9 14,3 15,1 0 0 9 5 N 1018,9 28 0 0,0
20.10.2017 20:00:00 16,5 10,8 12,6 14,3 15,1 6 3 12 6 W 1018,7 30 0 0,0
20.10.2017 19:00:00 18,1 10,9 16,7 14,2 15,1 6 3 18 10 WNW 1018,1 33 0 0,0
20.10.2017 18:00:00 19,8 10,8 19,4 14,1 15,1 8 4 32 17 SSW 1017,6 38 0 0,0
20.10.2017 17:00:00 20,7 11,1 20,9 14,1 15,1 20 11 37 20 SSW 1017,5 32 0 0,0
20.10.2017 16:00:00 21,0 10,8 21,0 14,0 15,2 22 12 48 26 SSW 1017,5 31 0 0,0
20.10.2017 15:00:00 20,5 11,1 20,8 14,0 15,1 22 12 42 23 SW 1017,5 11 0 0,0
20.10.2017 14:00:00 20,3 11,0 18,2 13,9 15,1 24 13 46 25 S 1017,6 10 0 0,0
20.10.2017 13:00:00 17,9 9,5 18,2 13,9 15,1 22 12 33 18 SW 1018,7 14 0 0,0
20.10.2017 12:00:00 18,5 9,6 17,8 14,0 15,1 13 7 22 12 SSW 1018,5 31 0 0,0
20.10.2017 11:00:00 15,6 9,3 15,6 14,0 15,1 4 2 11 6 ENE 1018,4 22 3 0,0
20.10.2017 10:00:00 14,2 8,2 12,2 14,1 15,1 8 4 17 9 E 1018,1 20 37 0,0
20.10.2017 09:00:00 11,4 7,5 8,1 14,2 15,1 13 7 18 10 E 1017,9 19 33 0,0
20.10.2017 08:00:00 8,9 6,3 6,7 14,3 15,1 13 7 17 9 E 1017,5 20 0 0,0
20.10.2017 07:00:00 8,0 5,3 6,5 14,4 15,1 11 6 16 9 E 1017,5 20 0 0,0
20.10.2017 06:00:00 8,2 5,3 6,9 14,4 15,1 13 7 19 11 ESE 1017,1 20 0 0,0
20.10.2017 05:00:00 8,5 5,8 6,8 14,5 15,1 15 8 20 11 E 1016,9 18 0 0,0
20.10.2017 04:00:00 8,9 5,6 6,7 14,6 15,1 11 6 19 10 E 1016,9 21 0 0,0
20.10.2017 03:00:00 9,6 5,9 7,6 14,7 15,1 11 6 18 10 E 1016,6 10 0 0,0
20.10.2017 02:00:00 11,1 7,0 7,2 14,7 15,1 14 8 19 10 ENE 1015,5 22 0 0,0
20.10.2017 01:00:00 9,9 6,6 7,8 14,8 15,1 9 5 17 9 E 1015,2 17 0 0,0
20.10.2017 00:00:00 10,3 6,8 7,2 14,8 15,1 8 4 11 6 E 1015,1 18 0 0,0
19.10.2017 23:00:00 11,5 7,2 6,2 14,8 15,2 7 4 10 5 ESE 1015,2 20 0 0,0
19.10.2017 22:00:00 10,3 6,8 7,8 14,8 15,2 9 5 15 8 E 1015,1 22 0 0,0
19.10.2017 21:00:00 11,3 6,8 9,5 14,8 15,1 14 8 18 10 E 1014,4 20 0 0,0
19.10.2017 20:00:00 12,1 7,0 9,6 14,7 15,2 13 7 16 9 E 1013,7 19 0 0,0
19.10.2017 19:00:00 15,4 6,1 10,9 14,6 15,1 8 4 11 6 E 1012,6 15 4 0,0
19.10.2017 18:00:00 19,9 5,9 18,6 14,5 15,1 3 1 18 10 S 1011,5 33 14 0,0
19.10.2017 17:00:00 20,6 4,6 19,3 14,4 15,1 8 5 34 19 SW 1011,1 10 22 0,0
19.10.2017 16:00:00 23,4 4,8 25,5 14,3 15,2 26 14 38 21 WSW 1010,5 30 60 0,0
19.10.2017 15:00:00 22,6 6,4 24,8 14,3 15,1 4 2 13 7 NNW 1010,7 31 34 0,0
19.10.2017 14:00:00 21,6 7,0 23,7 14,2 15,1 8 4 14 7 NNE 1011,4 50 47 0,0
19.10.2017 13:00:00 19,7 8,4 20,2 14,2 15,1 8 5 19 10 E 1012,7 17 16 0,0
19.10.2017 12:00:00 18,2 8,5 18,8 14,3 15,2 13 7 22 12 E 1013,1 30 12 0,0
19.10.2017 11:00:00 16,9 8,8 14,9 14,3 15,2 16 9 23 13 E 1013,7 18 53 0,0
19.10.2017 10:00:00 13,1 8,4 9,8 14,4 15,1 14 8 19 10 E 1014,9 17 22 0,0
19.10.2017 09:00:00 10,3 7,4 7,9 14,5 15,2 11 6 16 9 E 1014,9 20 0 0,0
19.10.2017 08:00:00 9,3 7,1 - - - 9 5 16 9 E 1014,8 10 - -
19.10.2017 07:00:00 9,8 7,9 8,8 14,6 15,1 14 8 17 9 E 1014,6 15 0 0,0
19.10.2017 06:00:00 9,5 8,3 8,4 14,7 15,2 14 8 18 10 E 1014,3 11 0 0,0
19.10.2017 05:00:00 10,6 9,0 8,1 14,7 15,2 11 6 17 9 ENE 1014,4 10 0 0,0
19.10.2017 04:00:00 10,5 8,6 8,1 14,7 15,1 9 5 17 9 E 1014,9 9 0 0,0
19.10.2017 03:00:00 11,5 9,1 9,2 14,8 15,2 9 5 16 9 E 1014,9 14 0 0,0
19.10.2017 02:00:00 14,2 9,2 9,7 14,8 15,1 6 4 16 8 SE 1014,6 17 0 0,0
19.10.2017 01:00:00 13,9 9,7 9,0 14,8 15,2 8 5 18 10 SE 1014,7 18 0 0,0
19.10.2017 00:00:00 15,7 10,9 12,9 14,8 15,2 9 5 16 8 SW 1014,4 22 0 0,0
18.10.2017 23:00:00 16,8 11,3 15,0 14,8 15,1 10 5 19 10 ESE 1014,7 22 0 0,0
18.10.2017 22:00:00 16,8 10,4 14,9 14,7 15,1 2 1 13 7 WNW 1014,8 26 0 0,0
18.10.2017 21:00:00 16,8 9,9 14,2 14,7 15,1 4 2 14 7 ESE 1014,2 27 0 0,0
18.10.2017 20:00:00 16,6 10,0 12,5 14,6 15,2 8 4 14 8 SSE 1014,1 25 0 0,0
18.10.2017 19:00:00 17,3 9,7 13,1 14,6 15,2 6 4 13 7 SSW 1013,8 18 3 0,0
18.10.2017 18:00:00 19,1 8,7 18,1 14,4 15,2 4 2 25 13 WSW 1013,4 17 7 0,0
18.10.2017 17:00:00 20,9 8,2 21,2 14,3 15,1 13 7 29 15 WSW 1013,1 10 15 0,0
18.10.2017 16:00:00 22,3 6,5 22,1 14,2 15,1 16 9 28 15 SW 1013,2 29 35 0,0
18.10.2017 15:00:00 21,6 5,9 22,4 14,1 15,2 20 11 28 15 WSW 1013,8 34 42 0,0
18.10.2017 14:00:00 21,3 7,5 24,1 14,1 15,2 16 8 29 16 WSW 1014,5 27 60 0,0
18.10.2017 13:00:00 20,4 7,4 21,3 14,1 15,2 4 2 12 6 E 1015,7 26 60 0,0
18.10.2017 12:00:00 17,5 9,1 18,4 14,2 15,2 10 5 14 8 E 1016,8 20 60 0,0
18.10.2017 11:00:00 15,1 9,7 15,0 14,2 15,2 7 4 15 8 NE 1017,6 7 60 0,0
18.10.2017 10:00:00 12,4 10,3 10,8 14,3 15,2 12 6 21 11 ENE 1018,3 9 60 0,0
18.10.2017 09:00:00 9,8 8,6 6,8 14,4 15,2 12 7 21 11 E 1018,7 6 39 0,0
18.10.2017 08:00:00 8,1 7,2 3,9 14,5 15,2 12 7 17 9 E 1019,0 2,5 0 0,0
18.10.2017 07:00:00 8,5 7,3 4,8 14,5 15,2 6 3 16 9 E 1019,3 3,5 0 0,0
18.10.2017 06:00:00 8,5 7,6 2,8 14,5 15,2 9 5 12 7 E 1019,7 3,8 0 0,0
18.10.2017 05:00:00 7,5 6,1 5,7 14,6 15,2 9 5 19 10 E 1020,0 3,8 0 0,0
18.10.2017 04:00:00 12,9 11,1 12,0 14,6 15,2 13 7 23 13 SW 1019,6 5 0 0,0
18.10.2017 03:00:00 13,5 11,2 12,3 14,7 15,2 16 8 31 17 SW 1019,9 8 0 0,0
18.10.2017 02:00:00 13,9 11,4 12,9 14,7 15,2 17 9 31 17 SW 1019,9 13 0 0,0
18.10.2017 01:00:00 14,2 11,2 13,0 14,7 15,2 21 11 32 17 SW 1020,0 15 0 0,0
18.10.2017 00:00:00 14,3 10,9 12,2 14,7 15,2 13 7 21 11 SSW 1020,3 11 0 0,0
17.10.2017 23:00:00 14,3 9,9 12,4 14,7 15,2 7 4 23 13 SSW 1020,5 16 0 0,0
17.10.2017 22:00:00 15,6 9,9 13,1 14,7 15,2 9 5 23 12 SW 1020,2 18 0 0,0
17.10.2017 21:00:00 15,8 9,0 11,7 14,6 15,2 6 3 22 12 SW 1020,1 20 0 0,0
17.10.2017 20:00:00 17,0 8,9 14,9 14,6 15,2 8 4 27 14 SW 1020,1 22 0 0,0
17.10.2017 19:00:00 18,4 9,2 16,9 14,4 15,2 16 8 27 15 SW 1019,6 18 27 0,0
17.10.2017 18:00:00 20,5 8,5 20,1 14,3 15,2 11 6 34 18 SW 1019,4 17 60 0,0
17.10.2017 17:00:00 21,5 8,0 23,6 14,1 15,2 19 10 30 16 SSW 1019,6 8 60 0,0
17.10.2017 16:00:00 22,4 9,2 25,4 14,0 15,2 15 8 28 15 SSW 1020,0 7 60 0,0
17.10.2017 15:00:00 22,4 8,5 25,2 14,0 15,2 14 7 30 16 WSW 1020,5 14 60 0,0
17.10.2017 14:00:00 22,7 8,8 25,6 13,9 15,2 9 5 21 11 WSW 1021,4 32 58 0,0
17.10.2017 13:00:00 20,7 7,0 22,2 13,9 15,2 3 2 18 10 N 1022,8 38 60 0,0
17.10.2017 12:00:00 18,7 6,5 18,6 14,0 15,2 13 7 22 12 E 1023,6 33 60 0,0
17.10.2017 11:00:00 16,0 6,4 14,2 14,1 15,2 15 8 23 12 E 1024,7 18 60 0,0
17.10.2017 10:00:00 12,9 6,7 10,1 14,2 15,2 16 9 22 12 E 1025,6 10 60 0,0
17.10.2017 09:00:00 9,3 6,4 6,3 14,3 15,2 13 7 18 10 E 1026,3 18 40 0,0
17.10.2017 08:00:00 7,8 5,4 4,0 14,3 15,2 14 7 16 9 E 1026,5 20 0 0,0
17.10.2017 07:00:00 7,1 5,2 5,5 14,4 15,2 13 7 20 11 E 1026,6 14 0 0,0
17.10.2017 06:00:00 7,6 5,2 6,0 14,5 15,2 14 7 18 10 E 1026,7 19 0 0,0
17.10.2017 05:00:00 7,3 5,8 5,7 14,6 15,2 14 7 17 9 E 1027,0 12 0 0,0
17.10.2017 04:00:00 7,9 6,5 5,5 14,7 15,2 11 6 16 9 E 1027,3 9 0 0,0
17.10.2017 03:00:00 7,4 5,9 5,6 14,8 15,2 12 7 17 9 E 1027,8 10 0 0,0
17.10.2017 02:00:00 8,5 7,3 6,0 14,8 15,2 14 7 18 10 ESE 1027,9 11 0 0,0
17.10.2017 01:00:00 9,1 7,0 6,5 14,9 15,2 14 8 18 10 E 1027,8 12 0 0,0
17.10.2017 00:00:00 8,9 6,3 6,1 15,0 15,2 13 7 16 9 E 1028,0 13 0 0,0
16.10.2017 23:00:00 9,9 6,1 6,1 15,0 15,2 6 3 15 8 E 1027,7 17 0 0,0
16.10.2017 22:00:00 10,4 6,7 7,3 14,9 15,2 7 4 11 6 E 1027,4 18 0 0,0
16.10.2017 21:00:00 14,2 7,5 8,4 14,9 15,2 6 3 12 7 E 1026,6 24 0 0,0
16.10.2017 20:00:00 16,3 6,7 10,4 14,8 15,2 3 2 14 8 N 1026,2 25 0 0,0
16.10.2017 19:00:00 18,1 7,2 12,7 14,7 15,2 3 2 15 8 W 1025,5 19 24 0,0
16.10.2017 18:00:00 21,5 8,0 20,7 14,5 15,2 16 9 24 13 SW 1024,8 26 60 0,0
16.10.2017 17:00:00 23,0 9,4 25,6 14,4 15,2 11 6 27 15 SSW 1024,7 10 60 0,0
16.10.2017 16:00:00 23,1 10,5 26,0 14,3 15,2 18 10 30 16 SSW 1024,8 30 60 0,0
16.10.2017 15:00:00 23,2 10,3 25,1 14,2 15,2 10 6 27 14 SSW 1025,4 26 60 0,0
16.10.2017 14:00:00 22,1 10,9 25,4 14,2 15,2 14 8 26 14 S 1026,2 17 60 0,0
16.10.2017 13:00:00 21,0 11,9 21,8 14,1 15,2 13 7 32 17 SSW 1026,9 18 60 0,0
16.10.2017 12:00:00 19,1 11,9 20,0 14,2 15,2 6 3 18 10 S 1027,5 12 60 0,0
16.10.2017 11:00:00 16,6 11,7 16,4 14,2 15,2 5 3 13 7 E 1027,9 9 60 0,0
16.10.2017 10:00:00 13,9 9,9 11,7 14,3 15,2 10 5 15 8 E 1028,3 17 60 0,0
16.10.2017 09:00:00 10,0 8,1 6,2 14,4 15,2 11 6 14 8 E 1028,6 13 42 0,0
16.10.2017 08:00:00 7,8 6,3 6,2 14,5 15,2 12 7 15 8 E 1028,5 12 0 0,0
16.10.2017 07:00:00 8,3 6,4 6,9 14,5 15,2 10 6 19 11 E 1028,3 13 0 0,0
16.10.2017 06:00:00 10,5 8,9 7,6 14,6 15,2 13 7 20 11 E 1027,8 10 0 0,0
16.10.2017 05:00:00 9,9 8,5 8,2 14,7 15,2 12 6 18 10 E 1028,0 12 0 0,0
16.10.2017 04:00:00 10,0 9,2 7,2 14,8 15,2 13 7 16 8 E 1028,3 9 0 0,0
16.10.2017 03:00:00 9,3 8,4 7,2 14,8 15,2 9 5 14 7 E 1028,8 9 0 0,0
16.10.2017 02:00:00 8,6 6,9 7,2 14,9 15,2 11 6 14 8 E 1029,0 11 0 0,0
16.10.2017 01:00:00 9,1 7,2 7,4 14,9 15,2 8 5 14 8 E 1029,2 11 0 0,0
16.10.2017 00:00:00 11,6 9,0 8,8 14,9 15,2 8 5 15 8 ESE 1028,6 12 0 0,0
15.10.2017 23:00:00 11,1 8,3 9,2 14,9 15,2 10 5 13 7 E 1028,6 15 0 0,0
15.10.2017 22:00:00 12,4 9,6 9,4 14,8 15,2 9 5 12 7 E 1028,2 17 0 0,0
15.10.2017 21:00:00 17,4 10,5 14,1 14,8 15,2 9 5 27 15 W 1027,1 22 0 0,0
15.10.2017 20:00:00 17,9 10,5 13,7 14,7 15,2 5 3 21 11 W 1026,9 26 0 0,0
15.10.2017 19:00:00 18,9 10,2 14,4 14,5 15,2 3 2 20 11 W 1026,2 26 26 0,0
15.10.2017 18:00:00 21,6 11,0 21,4 14,4 15,2 11 6 23 12 SW 1025,3 32 60 0,0
15.10.2017 17:00:00 23,2 12,2 25,9 14,2 15,2 11 6 20 11 SSW 1025,0 33 60 0,0
15.10.2017 16:00:00 23,3 12,3 26,4 14,1 15,2 10 5 27 15 WSW 1025,4 31 60 0,0
15.10.2017 15:00:00 23,2 12,2 26,6 14,0 15,2 14 8 25 13 SW 1025,7 23 60 0,0
15.10.2017 14:00:00 22,9 12,5 24,5 14,0 15,2 14 7 28 15 S 1026,4 22 60 0,0
15.10.2017 13:00:00 21,6 12,2 22,9 13,9 15,2 13 7 33 18 WSW 1027,2 20 60 0,0
15.10.2017 12:00:00 20,3 12,3 21,6 14,0 15,2 18 10 30 16 WSW 1027,8 25 60 0,0
15.10.2017 11:00:00 18,8 12,1 17,6 14,1 15,2 2 1 12 6 SE 1028,3 20 60 0,0
15.10.2017 10:00:00 15,2 12,1 11,9 14,1 15,2 10 5 18 10 E 1028,6 11 60 0,0

tt = Température de l'air
td = dewpoint
tt 5cm = Température de l'air 5cm
tt -20cm = Température de l'air -20cm
tt -100cm = Température de l'air -100cm
ff = Vitesse du vent
fx = gusts
dd = Direction du vent
ppp = reduced air pressure
vv = visibility
sd = Ensoleillement
rr = Quantités de précipitations

stations d'obs. à proximité